www.pogodaiklimat.ru

Погода и климат >> Архив погоды >> Алжир >> Bordj Badji Mokhtar


ПОГОДА в Bordj Badji Mokhtar

  • Прогноз погоды в Bordj Badji Mokhtar
  • Монитор погоды в Bordj Badji Mokhtar
  • Климат города

АРХИВ ПОГОДЫ в Bordj Badji Mokhtar

Время (UTC), дата Ветер
(напр.,м/с)
 
Видим.   Явления Облачность Т
(С)
Тd
(С)
f
(%)
Тe
(С)
Тes
(С)
Комфортность P
(гПа)
Po
(гПа)
Тmin
(С)
Tmax
(С)
R
(мм)
R24
(мм)
S
(см)
18 11.10 С 7 8000 м ясно +36.0 +4.0 14 +33 +33 жарко 1010.2 1010.0 +38.7
06 12.10 штиль 0 10 км ясно +23.2 +6.2 33 +24 +24 комфорт 1011.7 1012.0 +23.2
09 12.10 В 9 10 км ясно +31.6 +4.2 18 +29 +30 жарко 1012.9 1013.0
12 12.10 СВ 3 10 км ясно +37.7 +5.8 14 +35 +48 очень
жарко
1011.4 1011.0
15 12.10 С 4 10 км 4/0
[Ac trans]
+38.1 +4.2 12 +35 +39 очень
жарко
1009.3 1009.0
18 12.10 СЗ 7 10 км 3/0
[Ac trans]
+35.5 +3.2 13 +32 +32 жарко 1010.3 1010.0 +39.1
06 13.10 СВ 4 8000 м ясно +23.8 +4.0 28 +23 +23 комфорт 1010.2 1010.0 +23.7
09 13.10 СВ 7 10 км ясно +30.7 +4.6 19 +29 +31 жарко 1012.0 1012.0
12 13.10 СВ 4 10 км ясно +36.4 +3.1 13 +33 +44 жарко 1010.4 1010.0
15 13.10 З 5 10 км 1/0
[Ac trans]
+37.5 +2.8 12 +34 +38 очень
жарко
1008.2 1008.0
18 13.10 СЗ 4 8000 м ясно +35.4 +1.4 12 +32 +32 жарко 1008.7 1009.0 +38.4
06 14.10 штиль 0 7000 м ясно +23.4 +2.0 25 +23 +23 комфорт 1009.3 1009.0 +23.4
09 14.10 ЮВ 3 10 км ясно +30.4 +5.1 20 +29 +35 жарко 1010.3 1010.0
12 14.10 ЮЗ 3 10 км ясно +36.8 +3.7 13 +34 +47 очень
жарко
1009.3 1009.0
15 14.10 З 5 10 км ясно +37.5 +3.6 12 +34 +38 очень
жарко
1007.8 1008.0
18 14.10 З 6 10 км 3/0
[Ac trans Ci sp]
+34.5 -0.2 11 +31 +31 жарко 1008.8 1009.0 +38.5
06 15.10 штиль 0 10 км 3/0
[Ac trans Ci sp]
+22.3 +5.9 34 +23 +23 комфорт 1010.7 1011.0 +22.2
09 15.10 штиль 0 10 км 3/0
[Ci sp]
+29.2 +2.1 18 +27 +37 жарко 1012.9 1013.0
12 15.10 штиль 0 10 км 4/0
[Ci sp]
+35.0 +4.9 15 +32 +52 опасность
солнечного
удара
1011.9 1012.0
15 15.10 СЗ 4 10 км 4/0
[Ci sp]
+36.5 +3.3 13 +33 +38 жарко 1009.8 1010.0
18 15.10 СЗ 4 10 км 3/0
[Ci sp]
+34.5 +2.0 13 +31 +31 жарко 1010.7 1011.0 +37.1
06 16.10 СВ 2 10 км 5/0
[Ac trans Ci sp]
+23.2 +2.2 25 +23 +23 комфорт 1012.4 1012.0 +23.0
09 16.10 СВ 5 10 км 1/0
[Ac trans]
+31.2 +1.8 15 +28 +32 жарко 1013.6 1014.0
12 16.10 С 7 10 км ясно +36.0 -0.6 10 +32 +36 жарко 1012.1 1012.0
15 16.10 СЗ 6 10 км ясно +38.1 -0.3 9 +34 +37 очень
жарко
1010.5 1011.0
18 16.10 штиль 0 10 км ясно +35.7 +0.4 11 +32 +32 жарко 1010.8 1011.0 +38.8
06 17.10 штиль 0 5000 м 6/0
[Ac trans Ci sp]
+25.0 +1.7 22 +24 +24 комфорт 1010.3 1010.0 +24.6
09 17.10 З 4 9000 м ясно +32.3 +2.4 15 +29 +34 жарко 1011.4 1011.0
12 17.10 З 4 10 км ясно +37.1 +0.7 10 +33 +44 жарко 1009.7 1010.0
15 17.10 ЮЗ 4 10 км 5/0
[Ac trans Ci sp]
+38.2 +0.4 9 +34 +38 очень
жарко
1008.1 1008.0
18 17.10 З 5 10 км 6/3 1500 м
[Sc Ac trans Ci sp]
+36.5 +31 +31 жарко 1008.2 1008.0 +39.3
06 18.10 З 5 10 км ясно +26.0 +4.3 25 +25 +25 комфорт 1007.6 1008.0 +26.0
09 18.10 ЮВ 3 8000 м ясно +31.0 +4.6 19 +29 +35 жарко 1009.3 1009.0
12 18.10 ЮЗ 3 10 км ясно +36.4 +1.2 11 +33 +47 жарко 1007.9 1008.0

 

Местоположение метеостанции Bordj Badji Mokhtar (Алжир): широта 21.33 долгота 0.95 высота над уровнем моря 399 м.

В архиве по умолчанию представлена погода в Bordj Badji Mokhtar за последнюю неделю. Архивные данные за месяц целиком и за предыдущие месяцы, начиная с января 2011 года, Вы можете получить, выбрав интересующий диапазон дат из раскрывающегося списка и нажав кнопку "Ввод!".


*Определитесь, кто Вы:
робот инопланетянин человек

Внимание! Время в таблицах - всемирное. Для получения местного времени необходимо прибавить поправку, которая в Bordj Badji Mokhtar равна 1 ч.

Смотрите также архив погоды в соседних городах и на ближайших метеорологических станциях:

Погода в In Ziza (Алжир) (288 км)
Погода в Abankor (Алжир) (414 км)
Погода в Anesbaraka (Алжир) (440 км)
Погода в Tamanrasset (Алжир) (490 км)
Погода в Arak (Алжир) (523 км)
Погода в Assekrem (Алжир) (528 км)
Погода в Moulay Lachen (Алжир) (537 км)
Погода в In Guezzam (Алжир) (537 км)
Погода в In Guezzam (Алжир) (537 км)
Погода в Mertouek (Алжир) (572 км)

Пояснения к столбцам:

Ветер - указаны скорость ветра в м/с - средняя за 10 мин, порывы в срок и между сроками (в фигурных скобках) и направление, откуда дует ветер: С - северный, СВ - северо-восточный, В - восточный, ЮВ - юго-восточный, Ю - южный, ЮЗ - юго-западный, З - западный, СЗ - северо-западный.
Видимость - горизонтальная дальность видимости в метрах или километрах. При видимости от 1 до 10 км при отсутствии осадков обычно наблюдается дымка, при ухудшении видимости до 1 км и менее - туман. В сухую погоду видимость может ухудшаться дымом, пылью или мглою.
Явления - указаны атмосферные явления, наблюдавшиеся в срок или в последний час перед сроком; фигурными скобками обозначены явления, наблюдавшиеся между сроками (за 1-3 часа до срока); квадратными скобками обозначены град или гололедные отложения с указанием их диаметра в мм.
Облачность - указаны через наклонную черту общая и нижняя облачность в баллах и высота нижней границы облаков в метрах; квадратными скобками обозначены формы облаков: Ci - перистые, Cs - перисто-слоистые, Cc - перисто-кучевые, Ac - высококучевые, As - высокослоистые, Sc - слоисто-кучевые, Ns - слоисто-дождевые, Cu - кучевые, Cb - кучево-дождевые. Подробнее классификацию облаков см. в Атласе облаков (PDF).
T - Температура воздуха - температура, измеренная на высоте 2 м над землей.
Td - Температура точки росы - температура, при понижении до которой содержащийся в воздухе водяной пар достигнет насыщения.
f - Относительная влажность воздуха - влажноcть воздуха, измеренная на высоте 2 м над землей.
Te - Эффективная температура - температура, которую ощущает одетый по сезону человек в тени. Характеристика душности погоды. При расчете учитывается влияние влажности воздуха и скорости ветра на теплоощущения человека.
Tes - Эффективная температура на солнце - температура, которую ощущает человек, с поправкой на солнечный нагрев. Характеристика знойности погоды. Зависит от высоты солнца над горизонтом, облачности и скорости ветра. Ночью, в пасмурную погоду, а также при ветре 12 м/с и более поправка равна нулю.
P - Атмосферное давление - приведенное к уровню моря атмосферное давление.
Po - Атмосферное давление - измеренное на уровне метеостанции атмосферное давление.
Tmin - Минимальная температура - минимум температуры воздуха на высоте 2 м над землей.
Tmax - Максимальная температура - максимум температуры воздуха на высоте 2 м над землей.
R - Количество осадков - Количество выпавших осадков за период времени, мм. При наведении курсора мыши на число - период времени, за который выпало указанное количество осадков.
R24 - Количество осадков - Количество выпавших осадков за 24 часа, мм.
S - Снежный покров - Высота снежного покрова, см. При наведении курсора мыши на число - состояние снежного покрова и степень покрытия местности в баллах.